User: anonymous   Login
Location: Unspecified
(0.0000°N, 0.0000°E)
Time: 16:50:24
(UTC+00:00)
Language:

APRIZESAT 1 (LATINSAT C) - Orbit

View from above orbital plane
View from above orbital plane
View from above satellite
View from above satellite

Ground track
Ground track

The orbit data is extracted from the following two-line orbital elements,

1 28372U 04025G   21025.40963769  .00000021  00000-0  17432-4 0  9991
2 28372  98.4228 339.6473 0046900  24.1581 336.1798 14.49656634876547
Epoch (UTC): 25 January 2021 09:49:52
Eccentricity: 0.0046900
inclination: 98.4228°
perigee height: 693 km
apogee height: 760 km
right ascension of ascending node: 339.6473°
argument of perigee: 24.1581°
revolutions per day: 14.49656634
mean anomaly at epoch: 336.1798°
orbit number at epoch: 87654

The dashed part of the orbit path shows where the satellite is in the earth's shadow,  

DLR